Tracking 27380 objects as of 5-Jun-2023
HD Live streaming from Space Station
objects crossing your sky now

METEOR 3-6

Track METEOR 3-6 now!
10-day predictions
METEOR 3-6 is classified as:


NORAD ID: 22969
Int'l Code: 1994-003A
Perigee: 1,190.8 km
Apogee: 1,215.8 km
Inclination: 82.6 °
Period: 109.3 minutes
Semi major axis: 7574 km
RCS: 4.6195 m2 (large)
Launch date: January 25, 1994
Source: Commonwealth of Independent States (former USSR) (CIS)
Launch site: PLESETSK MISSILE AND SPACE COMPLEX (PKMTR)
Your satellite tracking list
Your tracking list is empty




NASA's NSSDC Master Catalog

Two Line Element Set (TLE):
1 22969U 94003A   23156.48047185 -.00000092  00000-0 -27161-3 0  9991
2 22969  82.5603 149.2588 0016483  96.0244 264.2758 13.17017194411406
Source of the keplerian elements: AFSPC